Hourly Data Report for September 14, 2017

All times are specified in Local Standard Time (LST). Add 1 hour to adjust for Daylight Saving Time where and when it is observed.

ST. PETERS
PRINCE EDWARD ISLAND

46°27'01.000" N
62°34'33.000" W
29.70 m
8300562
71310
ZSP

Download Data

Hourly Data (September 2017)
Hourly Data Report for September 14, 2017
Temp Definition
°C
Dew Point Temp Definition
°C
Rel Hum Definition
%
Wind Dir Definition
10's deg

Wind Spd Definition
km/h
Visibility Definition
km
Stn Press Definition
kPa
Hmdx Definition


Wind Chill Definition


Weather Definition


TIME
00:00 16.8 13.5 81 21 18   100.30     LegendNANA
01:00 16.4 13.5 83 21 17   100.30     LegendNANA
02:00 16.4 13.3 82 21 19   100.29     LegendNANA
03:00 16.4 13.2 82 21 18   100.30     LegendNANA
04:00 15.7 13.2 85 21 17   100.33     LegendNANA
05:00 15.9 13.4 85 21 19   100.35     LegendNANA
06:00 15.7 13.4 86 21 16   100.40     LegendNANA
07:00 16.8 13.6 82 22 17   100.45     LegendNANA
08:00 18.3 14.2 77 22 15   100.49     LegendNANA
09:00 20.0 14.5 70 23 17   100.52     LegendNANA
10:00 22.4 15.3 64 24 14   100.53 27   LegendNANA
11:00 23.5 13.7 54 27 17   100.55 27   LegendNANA
12:00 24.1 13.9 53 28 15   100.53 27   LegendNANA
13:00 23.7 14.4 56 29 14   100.53 27   LegendNANA
14:00 22.9 14.3 58 31 11   100.54 26   LegendNANA
15:00 22.3 13.9 59 31 10   100.56 26   LegendNANA
16:00 22.1 13.9 59 32 5   100.58 25   LegendNANA
17:00 21.0 14.0 64 2 5   100.61     LegendNANA
18:00 19.3 14.2 73 7 5   100.65     LegendNANA
19:00 16.9 14.0 83 7 2   100.73     LegendNANA
20:00 16.3 13.4 83 12 4   100.80     LegendNANA
21:00 16.4 14.5 89 12 8   100.82     LegendNANA
22:00 15.4 14.1 92 10 2   100.87     LegendNANA
23:00 15.3 13.9 92 7 7   100.92     LegendNANA

Notes on Data Quality.

Legend

  • E = Estimated
  • M = Missing
  • NA = Not Available
  • ‡ = Partner data that is not subject to review by the National Climate Archives
Date modified: